Sitka, AK

5:16 PM AKST on February 06, 2016 (GMT -0900)
Sitka Rocky Gutierrez

Weather History for PASI - December, 2013

Change the Weather History Date:

Monday, December 30, 2013

  Actual Average Record
Temperature  
Mean Temperature 42 °F -  
Max Temperature 44 °F - - ()
Min Temperature 39 °F - - ()
Degree Days  
Heating Degree Days 24    
Moisture  
Dew Point 41 °F    
Average Humidity 93    
Maximum Humidity 100    
Minimum Humidity 73    
Precipitation  
Precipitation 0.91 in - - ()
Sea Level Pressure  
Sea Level Pressure 29.62 in    
Wind  
Wind Speed 14 mph (South)    
Max Wind Speed 25 mph    
Max Gust Speed 31 mph    
Visibility 5 miles    
Events Rain    
T = Trace of Precipitation, MM = Missing Value Source: NWS Daily Summary

Daily Weather History Graph

Daily Weather History Graph

Search for Another Location

Airport or City:

Trip Planner

Search our weather history database for the weather conditions in past years. The results will help you decide how hot, cold, wet, or windy it might be!

Date:

Astronomy

Dec. 30, 2013 Rise Set
Actual Time 8:40 AM AKST 3:28 PM AKST
Civil Twilight 7:51 AM AKST 4:17 PM AKST
Nautical Twilight 7:00 AM AKST 5:08 PM AKST
Astronomical Twilight 6:13 AM AKST 5:55 PM AKST
Moon 6:27 AM AKST (12/30) 2:19 PM AKST (12/30)
Length of Visible Light 8h 26m
Length of Day
6h 48m
Waning Crescent, 4% of the Moon is Illuminated
Dec 30
Waning Crescent
Jan 1
New
Jan 7
First Quarter
Jan 15
Full
Jan 23
Last Quarter

Hourly Weather History & Observations

Time (AKST) Temp. Windchill Dew Point Humidity Pressure Visibility Wind Dir Wind Speed Gust Speed Precip Events Conditions
12:53 AM 43.0 °F 33.8 °F 36.0 °F 76% 29.59 in 10.0 mi East 23.0 mph 29.9 mph 0.03 in Rain Rain
1:53 AM 44.1 °F 35.2 °F 36.0 °F 73% 29.54 in 10.0 mi East 23.0 mph 29.9 mph 0.02 in   Overcast
3:53 AM 43.0 °F 33.3 °F 37.0 °F 80% 29.50 in 7.0 mi East 25.3 mph 31.1 mph 0.08 in Rain Heavy Rain
4:53 AM 43.0 °F 35.1 °F 37.0 °F 80% 29.49 in 5.0 mi ESE 17.3 mph 27.6 mph N/A Rain Heavy Rain
5:31 AM 42.1 °F 35.2 °F 37.9 °F 85% 29.50 in 2.5 mi SE 12.7 mph - N/A Rain Heavy Rain
5:53 AM 42.1 °F 33.9 °F 39.0 °F 89% 29.51 in 2.5 mi ESE 17.3 mph - N/A Rain Rain
6:06 AM 42.1 °F 35.2 °F 39.0 °F 89% 29.51 in 1.5 mi East 12.7 mph - 0.06 in Rain Rain
6:20 AM 41.0 °F 34.3 °F 39.9 °F 96% 29.52 in 1.5 mi SSE 11.5 mph 19.6 mph 0.10 in Rain Rain
6:29 AM 41.0 °F 36.4 °F 39.9 °F 96% 29.52 in 3.0 mi SSE 6.9 mph - 0.11 in Rain Light Rain
6:37 AM 42.1 °F 38.4 °F 39.9 °F 92% 29.52 in 1.8 mi SSE 5.8 mph - 0.14 in Rain Rain
6:51 AM 42.8 °F 37.0 °F 41.0 °F 93% 29.53 in 3.0 mi South 10.4 mph - 0.17 in Rain Light Rain
6:53 AM 43.0 °F 36.0 °F 41.0 °F 93% 29.53 in 4.0 mi South 13.8 mph 17.3 mph 0.17 in Rain Light Rain
7:05 AM 42.1 °F 34.2 °F 41.0 °F 96% 29.53 in 2.5 mi South 16.1 mph 24.2 mph 0.00 in Rain Light Rain
7:22 AM 43.0 °F 35.4 °F 41.0 °F 93% 29.54 in 7.0 mi South 16.1 mph - 0.00 in   Overcast
7:43 AM 43.0 °F 36.8 °F 41.0 °F 93% 29.54 in 5.0 mi South 11.5 mph - 0.01 in Rain Light Rain
7:53 AM 42.1 °F 36.6 °F 42.1 °F 100% 29.54 in 3.0 mi South 9.2 mph - 0.01 in Rain Light Rain
7:56 AM 42.1 °F 36.1 °F 42.1 °F 100% 29.54 in 3.0 mi South 10.4 mph - 0.01 in Rain Light Rain
8:10 AM 42.1 °F 36.1 °F 42.1 °F 100% 29.54 in 2.0 mi South 10.4 mph - 0.02 in Rain Light Rain
8:25 AM 42.1 °F 35.7 °F 42.1 °F 100% 29.54 in 2.5 mi South 11.5 mph - 0.04 in Rain Light Rain
8:53 AM 42.1 °F 37.1 °F 42.1 °F 100% 29.56 in 2.0 mi South 8.1 mph - 0.06 in Rain Light Rain
9:01 AM 42.1 °F 37.1 °F 42.1 °F 100% 29.56 in 1.5 mi South 8.1 mph - 0.01 in Rain Light Rain
9:19 AM 42.1 °F 36.6 °F 41.0 °F 96% 29.56 in 1.0 mi South 9.2 mph - 0.04 in Rain Light Rain
9:30 AM 42.1 °F 35.2 °F 41.0 °F 96% 29.57 in 2.0 mi South 12.7 mph - 0.05 in Rain Light Rain
9:36 AM 42.1 °F 36.6 °F 42.1 °F 100% 29.57 in 1.8 mi South 9.2 mph - 0.05 in Rain Light Rain
9:44 AM 43.0 °F 37.2 °F 42.1 °F 97% 29.57 in 2.0 mi South 10.4 mph - 0.05 in Rain Light Rain
9:53 AM 43.0 °F 37.2 °F 42.1 °F 97% 29.57 in 1.5 mi South 10.4 mph - 0.06 in Rain Light Rain
10:02 AM 43.0 °F 37.2 °F 42.1 °F 97% 29.58 in 2.5 mi South 10.4 mph - 0.00 in Rain Light Rain
10:12 AM 43.0 °F 37.7 °F 42.1 °F 97% 29.58 in 2.0 mi South 9.2 mph - 0.01 in Rain Light Rain
10:14 AM 43.0 °F 38.2 °F 42.1 °F 97% 29.58 in 1.2 mi South 8.1 mph - 0.01 in Rain Light Rain
10:17 AM 43.0 °F 38.2 °F 42.1 °F 97% 29.58 in 3.0 mi SSE 8.1 mph - 0.01 in Rain Light Rain
10:36 AM 43.0 °F 37.2 °F 42.1 °F 97% 29.59 in 1.5 mi South 10.4 mph - 0.02 in Rain Light Rain
10:53 AM 43.0 °F 36.0 °F 42.1 °F 97% 29.59 in 2.5 mi SSW 13.8 mph 21.9 mph 0.04 in Rain Light Rain
10:58 AM 43.0 °F 37.7 °F 42.1 °F 97% 29.59 in 4.0 mi SSW 9.2 mph - 0.01 in Rain Light Rain
11:05 AM 43.0 °F 36.4 °F 42.1 °F 97% 29.59 in 6.0 mi SSW 12.7 mph - 0.01 in Rain Light Rain
11:30 AM 43.0 °F 36.8 °F 41.0 °F 93% 29.61 in 4.0 mi SSW 11.5 mph - 0.01 in Rain Light Rain
11:53 AM 43.0 °F 38.2 °F 42.1 °F 97% 29.62 in 7.0 mi SSW 8.1 mph - 0.01 in Rain Light Rain
12:15 PM 43.0 °F 37.2 °F 42.1 °F 97% 29.61 in 4.0 mi SW 10.4 mph - 0.00 in Rain Light Rain
12:29 PM 43.0 °F 38.8 °F 42.1 °F 97% 29.62 in 2.0 mi SSW 6.9 mph - 0.00 in Rain Light Rain
12:38 PM 43.0 °F 37.2 °F 42.1 °F 97% 29.63 in 4.0 mi South 10.4 mph - 0.01 in Rain Light Rain
12:53 PM 43.0 °F 36.8 °F 42.1 °F 97% 29.63 in 3.0 mi SSW 11.5 mph - 0.01 in Rain Light Rain
12:55 PM 43.0 °F - 42.1 °F 97% 29.63 in 6.0 mi North - - 0.00 in Rain Light Rain
1:16 PM 44.1 °F 37.7 °F 41.0 °F 89% 29.64 in 10.0 mi SW 12.7 mph - 0.00 in   Overcast
1:53 PM 43.0 °F 35.7 °F 41.0 °F 93% 29.66 in 2.0 mi WSW 15.0 mph 23.0 mph 0.00 in Rain Light Rain
2:01 PM 42.1 °F 34.9 °F 41.0 °F 96% 29.66 in 6.0 mi WSW 13.8 mph 20.7 mph 0.01 in Rain Light Rain
2:53 PM 43.0 °F 36.4 °F 39.9 °F 89% 29.68 in 10.0 mi SW 12.7 mph - 0.01 in   Mostly Cloudy
3:36 PM 43.0 °F 39.5 °F 41.0 °F 93% 29.69 in 10.0 mi SSW 5.8 mph - N/A   Overcast
3:53 PM 43.0 °F 37.7 °F 41.0 °F 93% 29.70 in 5.0 mi SW 9.2 mph - 0.00 in Rain Light Rain
4:53 PM 43.0 °F 36.0 °F 41.0 °F 93% 29.72 in 10.0 mi SW 13.8 mph - 0.01 in   Overcast
5:30 PM 43.0 °F 35.7 °F 41.0 °F 93% 29.73 in 10.0 mi SW 15.0 mph - 0.00 in Rain Light Rain
5:48 PM 42.8 °F 35.8 °F 41.0 °F 93% 29.74 in 5.0 mi SW 13.8 mph - 0.01 in Rain Light Rain
5:53 PM 43.0 °F 35.7 °F 42.1 °F 97% 29.74 in 6.0 mi SW 15.0 mph - 0.01 in Rain Light Rain
6:08 PM 43.0 °F 35.1 °F 41.0 °F 93% 29.74 in 6.0 mi SW 17.3 mph - 0.00 in Rain Light Rain
6:16 PM 43.0 °F 35.1 °F 42.1 °F 97% 29.74 in 4.0 mi SW 17.3 mph - 0.00 in Rain Light Rain
6:53 PM 42.1 °F 34.2 °F 41.0 °F 96% 29.77 in 3.0 mi WSW 16.1 mph - 0.01 in   Overcast
7:00 PM 43.0 °F 34.5 °F 39.9 °F 89% 29.77 in 10.0 mi WSW 19.6 mph 26.5 mph N/A   Overcast
7:53 PM 42.1 °F 35.2 °F 39.0 °F 89% 29.80 in 10.0 mi WSW 12.7 mph - 0.00 in   Overcast
8:53 PM 42.1 °F 37.7 °F 39.0 °F 89% 29.81 in 10.0 mi SSE 6.9 mph - N/A   Overcast
9:53 PM 41.0 °F 34.7 °F 37.9 °F 89% 29.82 in 5.0 mi SSE 10.4 mph - 0.06 in Rain Rain
10:53 PM 39.9 °F 33.4 °F 36.0 °F 86% 29.83 in 6.0 mi East 10.4 mph - 0.15 in Rain Rain
11:53 PM 39.0 °F 31.8 °F 36.0 °F 89% 29.82 in 6.0 mi East 11.5 mph - 0.17 in Rain Rain